Theta_e
316 318 321 324 323 320 325 324 323 324 323 322 321 320 320 320 320 322 322 322 322 321 319 319 316 314 313 313 310 308 308 307 309 313 311 309 307 304 305 306 306 307 308
299 305 318 320 323 322 321 324 324 324 324 324 324 324 323 322 323 322 322 322 322 321 320 319 317 315 313 311 309 308 307 308 313 312 310 303 307 303 303 304 305 307 307
303 301 305 317 320 322 321 322 324 324 324 325 325 320 319 317 321 321 321 321 321 321 320 319 318 315 316 315 312 310 309 308 308 314 310 300 303 303 303 301 302 303 304
305 305 302 306 317 319 323 323 323 324 324 325 324 323 322 321 323 324 325 323 321 321 320 320 318 317 316 316 314 313 313 309 311 309 311 310 309 306 303 305 305 305 304
307 305 305 303 309 318 320 322 322 323 324 324 325 323 322 323 324 323 322 322 322 322 320 319 318 317 316 317 315 312 313 312 313 308 305 311 310 309 306 304 302 303 304
308 308 308 306 303 311 319 320 321 321 323 323 323 323 322 322 320 319 319 320 322 323 322 320 319 318 317 316 316 315 314 314 314 311 308 308 308 309 307 306 302 301 301
300 301 301 300 301 306 314 318 319 319 322 322 322 323 322 321 320 319 319 319 320 322 322 323 320 319 318 317 317 315 315 314 313 313 312 313 313 310 309 307 301 300 298
297 299 301 302 302 304 311 316 318 319 320 321 321 323 323 322 322 321 321 320 320 321 322 322 322 321 320 318 317 317 316 315 314 314 313 313 315 312 312 310 303 297 294
297 296 297 298 298 302 309 314 317 319 319 320 321 321 322 322 321 322 321 321 321 320 319 321 321 321 320 319 319 318 317 316 315 316 315 314 315 314 313 312 308 309 297
297 297 296 295 297 299 306 311 316 317 319 319 321 321 321 321 322 321 320 320 320 318 316 319 319 319 320 320 319 318 318 316 316 316 315 314 315 313 313 312 311 311 310
294 295 297 294 293 296 302 307 311 314 315 318 319 320 320 320 320 320 320 320 320 318 318 319 319 319 320 320 319 318 318 317 316 315 314 313 314 313 313 312 311 309 309
292 292 292 292 291 292 297 303 307 310 314 315 318 319 319 319 319 321 321 320 320 320 319 319 319 319 319 320 318 318 318 317 315 314 313 313 312 312 312 311 309 309 308
290 289 289 290 291 292 293 298 303 307 307 308 312 311 313 315 318 320 321 320 321 321 320 319 320 320 319 320 320 319 318 317 316 315 313 313 311 310 310 309 308 307 303
289 289 290 290 291 292 293 292 295 301 303 305 308 310 312 313 315 315 314 317 320 321 320 320 320 319 320 319 318 316 317 316 315 314 313 313 310 310 307 306 305 303 299
290 289 289 291 291 292 293 293 293 294 295 298 299 300 300 301 302 303 306 308 311 314 315 316 316 315 314 311 312 311 313 312 310 307 307 310 305 299 304 305 302 299 298
290 290 290 290 292 293 293 294 295 295 295 294 294 295 295 296 296 297 297 298 301 305 306 305 307 306 302 295 302 307 307 305 302 301 299 298 292 294 297 298 299 301 297
291 291 290 291 291 293 293 293 295 296 296 296 295 295 295 295 296 296 296 296 298 298 298 299 300 300 301 297 298 296 301 300 300 298 296 294 292 291 294 295 296 296 298
291 291 290 291 291 291 293 294 295 295 295 295 295 294 293 293 292 292 293 292 292 294 295 296 295 296 295 296 296 294 297 297 296 296 295 294 294 292 292 291 290 291 292
295 291 290 291 290 290 290 292 292 293 293 293 292 291 291 290 289 289 288 286 288 287 287 288 288 289 292 294 294 293 291 290 292 292 292 293 292 292 293 289 289 287 288
292 291 290 288 289 288 289 290 290 290 291 290 290 290 286 288 288 288 288 286 286 286 286 286 286 286 287 293 294 293 287 287 287 289 289 287 290 292 293 289 288 287 289
291 289 289 288 286 285 286 288 288 288 285 285 285 285 287 287 290 288 286 287 287 287 287 287 285 286 286 287 294 295 287 288 286 286 286 285 290 292 293 293 287 288 287
286 286 285 284 282 283 286 286 285 284 285 286 286 286 286 285 286 287 286 286 287 287 286 286 284 284 285 288 292 294 292 291 287 286 285 285 289 291 292 289 291 290 288
284 283 282 280 281 281 283 282 283 284 284 285 285 286 286 286 286 287 286 286 286 287 285 285 285 283 283 285 292 293 292 291 286 285 287 289 290 291 291 291 290 285 285
281 280 280 279 279 279 280 281 282 283 285 285 285 285 286 285 286 286 286 286 286 286 285 285 285 283 283 283 285 286 287 285 285 287 286 288 288 289 287 286 286 284 284
279 279 278 278 276 277 277 278 280 283 285 285 284 285 285 286 285 285 286 286 285 286 286 285 285 285 285 285 287 287 286 286 286 285 285 285 285 284 284 284 283 283 282
276 275 275 275 274 275 275 276 279 283 284 282 283 284 284 284 285 285 284 288 288 289 289 289 288 287 289 290 290 290 290 289 288 285 284 283 283 282 282 282 281 281 281
Wind_Speed
21 8 12 13 10 10 14 15 16 15 12 10 9 8 10 8 7 8 11 11 9 10 9 6 5 5 6 6 6 4 5 4 3 1 1 1 2 2 1 2 4 4 4
13 13 12 12 15 16 18 17 17 16 15 11 10 8 8 8 9 8 9 11 11 11 10 10 7 7 5 6 6 5 3 3 5 4 1 2 1 1 2 1 2 4 3
17 15 11 16 16 19 20 19 19 18 15 16 9 3 3 1 6 7 8 10 11 11 12 11 9 8 8 7 7 7 7 5 4 6 4 1 4 1 0 2 2 3 2
17 16 13 15 18 21 16 18 18 18 16 17 13 17 13 13 11 10 9 8 11 12 12 11 10 9 8 8 8 8 7 4 6 1 4 2 3 3 1 2 3 3 4
19 19 19 18 18 16 18 18 18 17 17 18 19 14 15 12 9 8 9 11 9 12 12 12 11 10 8 9 10 8 9 7 6 4 3 4 3 3 2 3 2 2 3
20 18 18 15 14 13 15 15 18 19 18 19 21 20 20 15 10 9 9 9 9 9 12 12 11 11 10 11 10 11 11 11 9 6 5 5 4 5 4 3 3 3 3
9 10 11 13 15 15 18 16 18 19 19 20 19 21 20 18 16 15 11 11 10 10 14 14 13 11 12 12 10 11 12 12 10 11 8 8 7 3 4 3 3 4 2
10 11 14 14 15 15 17 18 19 19 19 20 20 18 18 12 13 13 12 11 11 11 12 14 15 14 12 12 11 9 10 11 10 12 10 8 9 6 7 6 5 2 3
9 11 9 10 10 11 16 19 18 18 18 19 17 17 15 16 15 15 13 11 11 8 9 12 15 14 13 13 12 10 12 11 11 12 13 11 9 7 8 7 6 8 5
10 9 9 9 9 10 10 12 16 18 17 18 16 15 17 16 14 11 13 13 10 9 10 12 13 12 13 13 13 11 10 11 9 8 10 10 8 8 8 8 9 8 9
10 8 7 6 6 7 8 8 9 11 11 13 14 14 14 14 13 12 12 12 10 10 12 13 13 13 13 13 12 12 11 13 12 11 11 13 11 8 7 7 7 8 7
9 8 5 5 5 7 7 8 8 10 12 12 13 14 12 12 12 13 12 11 13 11 13 13 13 12 12 13 13 13 11 12 12 13 12 12 8 11 10 8 10 9 10
8 5 3 6 7 7 6 7 7 10 7 8 10 8 9 11 12 13 13 11 12 12 12 12 12 12 12 12 12 13 12 13 13 12 12 12 10 11 8 9 9 8 6
8 6 6 5 6 6 5 6 7 6 6 7 8 10 11 11 10 7 7 8 10 11 11 11 11 11 11 12 12 11 11 11 10 11 11 12 12 12 10 10 11 8 8
9 7 7 7 6 6 4 4 4 6 7 7 6 7 5 5 5 5 5 5 5 6 7 8 9 8 9 7 9 8 9 9 9 8 9 9 10 13 12 8 9 8 8
10 9 8 8 7 7 7 6 6 6 5 7 7 6 6 6 7 6 6 6 6 5 4 5 6 6 4 7 12 9 7 7 7 6 6 7 7 8 13 14 9 13 11
12 8 9 8 7 7 6 7 6 5 6 6 6 6 6 7 7 6 6 7 7 5 6 5 5 5 4 8 8 8 3 4 5 6 6 5 4 5 5 8 10 11 14
10 9 7 4 4 3 4 4 5 6 6 7 7 7 7 6 5 6 6 5 4 6 5 6 5 4 2 3 4 5 4 4 4 4 4 5 5 6 8 6 6 7 8
10 8 6 5 4 5 3 5 5 6 6 6 5 5 6 6 6 6 5 2 4 3 1 2 4 5 5 7 5 5 3 2 4 3 3 5 6 6 11 6 6 4 5
8 9 8 5 6 4 3 6 6 5 5 4 4 4 5 6 5 4 4 2 3 3 2 2 2 3 2 2 3 4 3 2 2 2 3 3 5 3 10 6 6 6 7
9 5 6 6 3 2 2 5 6 6 3 3 4 3 2 3 5 5 4 3 3 5 4 4 2 3 2 1 3 8 4 3 2 2 1 1 4 4 9 9 4 1 4
5 5 7 6 4 3 2 5 6 3 3 4 4 4 4 2 3 5 2 3 5 3 3 4 1 2 3 4 2 3 3 3 2 1 1 1 3 3 5 6 10 11 9
5 4 7 6 4 5 4 5 3 3 3 3 3 4 4 3 4 5 4 3 2 3 3 1 1 2 2 2 4 6 5 6 2 2 1 1 0 3 2 10 11 6 4
4 3 4 7 5 5 6 5 3 1 3 4 4 4 5 5 4 3 3 3 3 2 3 3 3 2 1 2 2 3 4 7 4 5 3 6 7 7 5 4 7 3 3
5 5 4 5 6 4 4 4 3 0 3 4 3 5 4 6 7 6 4 4 2 3 3 2 2 2 3 1 3 4 4 3 6 4 1 2 3 3 2 3 4 3 4
5 6 6 4 4 5 4 5 5 1 4 4 3 4 5 5 7 8 10 19 18 19 17 13 8 5 8 9 8 9 10 11 7 3 3 4 3 3 2 2 2 1 1
Wind_Direction
246 223 215 214 200 193 196 195 192 191 182 188 189 198 208 203 205 208 201 200 200 197 198 209 196 178 189 201 191 163 191 226 215 215 182 247 36 26 6 147 152 158 159
244 235 210 204 203 198 202 200 200 194 194 194 199 203 194 213 212 206 205 204 200 194 199 206 200 187 182 192 182 172 188 223 188 196 85 282 262 15 3 87 153 155 133
238 237 212 206 206 209 205 201 201 198 195 196 188 169 142 123 198 207 209 207 202 200 202 204 199 190 190 201 194 188 188 211 212 215 155 124 225 155 150 244 218 175 162
233 231 221 217 209 214 204 206 202 202 199 191 191 200 208 213 216 215 212 210 202 206 205 205 199 197 197 202 196 196 203 177 222 166 244 234 150 194 239 241 216 205 192
223 223 224 220 213 210 203 203 200 199 197 195 200 198 209 216 211 205 206 203 204 210 206 201 197 201 198 208 196 191 202 200 207 184 156 216 212 217 205 219 212 235 202
228 226 228 226 219 204 201 200 197 203 196 196 201 201 208 205 197 194 198 205 209 208 212 203 202 203 204 204 201 204 204 207 210 198 186 182 175 200 197 200 189 199 211
223 219 210 208 210 193 195 195 194 202 198 199 201 205 207 201 201 198 201 198 205 213 218 205 203 205 207 206 202 203 208 207 208 211 213 218 220 171 173 164 184 207 171
212 214 220 217 215 205 197 195 197 201 197 199 203 204 205 204 207 202 201 209 208 210 206 209 217 214 209 207 205 210 213 210 210 214 213 214 220 198 208 203 153 230 225
231 225 217 215 213 206 203 199 198 200 197 201 200 203 200 204 207 207 203 205 209 203 191 195 205 211 211 209 207 214 216 207 207 214 214 216 220 209 209 206 196 219 191
248 224 218 213 215 212 207 202 202 199 195 196 198 200 201 204 208 201 204 208 205 193 181 190 198 206 210 210 206 215 218 210 213 218 214 215 217 215 216 216 218 213 222
269 254 245 216 204 201 196 200 197 194 190 189 195 199 202 203 201 203 205 206 201 188 193 197 201 207 211 208 209 218 217 210 213 210 209 214 209 214 215 215 220 224 216
279 278 273 240 209 205 194 199 193 192 195 190 192 198 195 194 197 207 207 198 202 198 200 200 207 210 211 213 210 213 209 208 208 208 206 214 203 214 213 203 210 213 215
315 297 275 236 239 230 202 198 194 201 180 171 181 179 183 183 198 206 209 201 202 201 203 203 209 213 212 213 212 205 204 207 209 208 203 211 205 217 210 206 207 209 199
293 295 296 267 257 238 217 200 203 189 175 181 190 196 199 199 204 203 193 196 202 209 207 206 212 216 218 220 210 198 204 204 208 203 205 207 205 216 205 210 210 200 188
304 288 281 277 255 245 215 191 194 186 176 181 189 205 187 178 184 194 201 202 200 211 204 203 210 209 210 203 199 192 196 196 198 201 205 211 207 209 204 200 204 185 192
276 278 272 263 251 230 219 199 197 188 166 176 192 182 181 179 191 196 196 184 194 203 206 212 204 201 208 204 198 182 196 196 199 206 218 220 220 224 220 216 206 193 188
279 270 252 237 233 229 210 213 202 165 173 176 173 171 171 180 184 173 166 178 180 163 177 183 180 202 199 191 205 199 187 201 215 217 221 234 223 225 228 231 225 213 216
267 267 257 242 249 228 207 162 160 172 177 182 178 176 174 186 176 164 175 168 158 173 166 186 183 179 181 171 173 186 188 213 229 232 232 229 245 215 210 205 212 213 215
231 230 214 204 199 198 177 169 158 171 177 191 190 187 180 176 169 173 166 129 129 102 137 136 138 161 180 185 181 154 161 206 235 235 229 226 240 228 204 182 205 204 227
217 213 201 174 179 191 177 165 184 173 194 180 182 176 168 154 147 145 132 116 112 113 107 111 118 167 155 139 162 153 131 165 210 245 262 243 256 247 201 195 194 208 227
200 156 166 167 131 103 218 185 160 172 133 94 82 84 132 146 147 145 134 132 124 122 144 139 135 115 111 116 199 183 159 175 152 199 265 256 243 226 214 197 144 230 104
144 153 141 127 70 10 183 159 153 143 121 113 96 98 99 105 107 122 83 96 128 141 154 136 93 46 41 19 36 155 162 161 146 170 224 218 220 219 204 150 135 132 126
133 115 123 113 58 34 35 116 92 89 85 90 105 96 91 87 99 110 118 94 116 137 128 113 106 71 17 38 60 101 92 97 74 71 92 77 94 139 138 133 129 103 88
76 51 101 108 82 37 45 56 55 86 161 139 115 107 105 94 92 94 111 117 135 149 130 122 112 112 123 66 77 101 105 103 89 94 75 70 71 75 80 103 109 102 103
39 56 57 85 87 60 53 18 353 48 105 109 131 127 122 117 101 82 90 101 74 121 132 121 100 115 81 67 135 122 111 124 119 111 108 91 79 99 95 98 121 137 148
25 55 63 43 64 71 41 4 344 42 138 145 134 119 118 120 118 109 88 72 76 74 74 91 88 62 82 86 106 113 117 119 107 57 56 49 46 53 35 69 75 52 100